This is the latest recevied weather packets stored in our database for station/object IZ5MMH-4. If no packets are shown the sender has not sent any weather packets the latest 10 day(s).
| Time | Temp. | Humidity | Pressure | Rain* | Wind** | Luminosity | Snow |
|---|---|---|---|---|---|---|---|
| 1787405064 | 31.11° C | 46% | 1016.2 hPa | - | - | - | - |
| 1787404464 | 31.11° C | 46% | 1016.2 hPa | - | - | - | - |
| 1787403864 | 31.11° C | 47% | 1016.2 hPa | - | - | - | - |
| 1787403263 | 30.56° C | 48% | 1016.1 hPa | - | - | - | - |
| 1787402664 | 31.11° C | 49% | 1016.3 hPa | - | - | - | - |
| 1787402063 | 30.56° C | 47% | 1016.3 hPa | - | - | - | - |
| 1787401464 | 30.56° C | 48% | 1016.3 hPa | - | - | - | - |
| 1787400863 | 31.11° C | 47% | 1016.2 hPa | - | - | - | - |
| 1787400264 | 31.11° C | 49% | 1016.2 hPa | - | - | - | - |
| 1787399664 | 31.11° C | 49% | 1016 hPa | - | - | - | - |
| 1787399063 | 31.11° C | 48% | 1016.1 hPa | - | - | - | - |
| 1787398464 | 31.11° C | 49% | 1016.2 hPa | - | - | - | - |
| 1787397863 | 31.11° C | 49% | 1016.1 hPa | - | - | - | - |
| 1787397264 | 30.56° C | 48% | 1016.2 hPa | - | - | - | - |
| 1787396663 | 30.56° C | 48% | 1016 hPa | - | - | - | - |
| 1787396064 | 30.56° C | 48% | 1016.1 hPa | - | - | - | - |
| 1787395464 | 30.56° C | 50% | 1016 hPa | - | - | - | - |
| 1787394864 | 30.56° C | 54% | 1016 hPa | - | - | - | - |
| 1787394264 | 30° C | 56% | 1015.8 hPa | - | - | - | - |
| 1787393664 | 30° C | 55% | 1015.7 hPa | - | - | - | - |
| 1787393064 | 30° C | 56% | 1015.7 hPa | - | - | - | - |
| 1787392463 | 30° C | 57% | 1015.5 hPa | - | - | - | - |
| 1787391864 | 30° C | 54% | 1015.6 hPa | - | - | - | - |
| 1787391264 | 29.44° C | 49% | 1015.6 hPa | - | - | - | - |
| 1787390663 | 29.44° C | 52% | 1015.6 hPa | - | - | - | - |
* Rain since midnight (hover to see other rain measurements)
** Current wind speed in m/s (hover to see current wind gust speed)